Dades meteomassalio
Diari Summary for Juny 11, 2017 Units:  English    Metric   Both
« Previous Day
Next Day »
Diari Semanal Mensual Anual Personalitzat
  Maxima: Minima: Mijana:
Temperatura: TemperatureC °F 16.3 °F 26.5 °F
Rosada: DewpointC °F 12.4 °F 14.8 °F
Humitat: Humidity % 26 % 53 %
Velocitat del vent: WindSpeedKMH mph 0.0 mph 4.4 mph
Racha vent: WindSpeedGustKMH mph - -
Vent:- - East
Pressio: PressurehPa in 1012.8 in -
Pluja: 0.0 in    
Historical Graphs
 
 
Tabular Data for Juny 11, 2017
Time Temperature Dew Point Pressure Wind Wind Speed Wind Gust Humidity Rainfall Rate (Hourly) solar Conditions
TemperatureC °F DewpointC °F PressurehPa in Calm     Humidity % HourlyPrecipMM in SolarRadiationWatts/m^2 W/m2 Conditions
00:00 22.6 °F 15.4 °F 1015.8 in Calm     64 % 0.0 in 0.0 W/m2 CLR
00:05 22.5 °F 15.8 °F 1015.8 in Calm     66 % 0.0 in 0.0 W/m2 CLR
00:10 22.4 °F 15.5 °F 1015.8 in Calm     65 % 0.0 in 0.0 W/m2 CLR
00:15 22.3 °F 15.7 °F 1015.8 in Calm     66 % 0.0 in 0.0 W/m2 CLR
00:20 22.3 °F 15.8 °F 1015.8 in Calm     67 % 0.0 in 0.0 W/m2 CLR
00:25 22.2 °F 15.7 °F 1015.8 in Calm     67 % 0.0 in 0.0 W/m2 CLR
00:30 22.1 °F 15.2 °F 1015.8 in Calm     65 % 0.0 in 0.0 W/m2 CLR
00:35 22.1 °F 15.2 °F 1015.8 in Calm     65 % 0.0 in 0.0 W/m2 CLR
00:40 22.0 °F 15.1 °F 1015.8 in Calm     65 % 0.0 in 0.0 W/m2 CLR
00:45 22.0 °F 15.3 °F 1015.8 in Calm     66 % 0.0 in 0.0 W/m2 CLR
00:50 21.9 °F 15.7 °F 1015.8 in Calm     68 % 0.0 in 0.0 W/m2 CLR
00:55 21.8 °F 15.4 °F 1015.8 in Calm     67 % 0.0 in 0.0 W/m2 CLR
01:00 21.8 °F 15.6 °F 1015.8 in Calm     68 % 0.0 in 0.0 W/m2 CLR
01:05 21.8 °F 15.6 °F 1015.8 in Calm     68 % 0.0 in 0.0 W/m2 CLR
01:10 21.7 °F 15.3 °F 1015.8 in Calm     67 % 0.0 in 0.0 W/m2 CLR
01:15 21.6 °F 15.4 °F 1015.8 in Calm     68 % 0.0 in 0.0 W/m2 CLR
01:20 21.5 °F 15.6 °F 1015.8 in Calm     69 % 0.0 in 0.0 W/m2 CLR
01:25 21.3 °F 15.4 °F 1015.8 in Calm     69 % 0.0 in 0.0 W/m2 CLR
01:30 21.2 °F 15.6 °F 1015.8 in Calm     70 % 0.0 in 0.0 W/m2 CLR
01:35 21.1 °F 15.4 °F 1015.8 in Calm     70 % 0.0 in 0.0 W/m2 CLR
01:40 21.1 °F 15.7 °F 1015.5 in Calm     71 % 0.0 in 0.0 W/m2 CLR
01:45 21.2 °F 15.7 °F 1015.8 in Calm     71 % 0.0 in 0.0 W/m2 CLR
01:50 21.1 °F 15.7 °F 1015.8 in Calm     71 % 0.0 in 0.0 W/m2 CLR
01:55 21.1 °F 15.6 °F 1015.8 in Calm     71 % 0.0 in 0.0 W/m2 CLR
02:00 20.9 °F 15.9 °F 1015.8 in Calm     73 % 0.0 in 0.0 W/m2 CLR
02:05 20.8 °F 15.8 °F 1015.8 in Calm     73 % 0.0 in 0.0 W/m2 CLR
02:10 20.6 °F 15.8 °F 1015.8 in Calm     74 % 0.0 in 0.0 W/m2 CLR
02:15 20.4 °F 15.7 °F 1015.8 in Calm     74 % 0.0 in 0.0 W/m2 CLR
02:20 20.3 °F 15.8 °F 1015.8 in Calm     75 % 0.0 in 0.0 W/m2 CLR
02:25 20.2 °F 15.7 °F 1015.8 in Calm     75 % 0.0 in 0.0 W/m2 CLR
02:30 20.1 °F 15.7 °F 1015.8 in Calm     76 % 0.0 in 0.0 W/m2 CLR
02:35 20.0 °F 15.7 °F 1015.8 in Calm     76 % 0.0 in 0.0 W/m2 CLR
02:40 19.8 °F 15.7 °F 1015.8 in Calm     77 % 0.0 in 0.0 W/m2 CLR
02:45 19.7 °F 15.6 °F 1015.8 in Calm     77 % 0.0 in 0.0 W/m2 CLR
02:50 19.6 °F 15.7 °F 1015.8 in Calm     78 % 0.0 in 0.0 W/m2 CLR
02:55 19.5 °F 15.8 °F 1015.8 in Calm     79 % 0.0 in 0.0 W/m2 CLR
03:00 19.3 °F 15.6 °F 1015.8 in Calm     79 % 0.0 in 0.0 W/m2 CLR
03:05 19.2 °F 15.5 °F 1015.8 in Calm     79 % 0.0 in 0.0 W/m2 CLR
03:10 19.1 °F 15.6 °F 1015.8 in Calm     80 % 0.0 in 0.0 W/m2 CLR
03:15 19.0 °F 15.4 °F 1015.8 in Calm     80 % 0.0 in 0.0 W/m2 CLR
03:20 18.9 °F 15.4 °F 1015.8 in Calm     80 % 0.0 in 0.0 W/m2 CLR
03:25 18.9 °F 15.4 °F 1015.8 in Calm     80 % 0.0 in 0.0 W/m2 CLR
03:30 18.8 °F 15.3 °F 1015.8 in Calm     80 % 0.0 in 0.0 W/m2 CLR
03:35 18.6 °F 15.2 °F 1015.8 in Calm     81 % 0.0 in 0.0 W/m2 CLR
03:40 18.4 °F 15.1 °F 1015.8 in Calm     81 % 0.0 in 0.0 W/m2 CLR
03:45 18.3 °F 15.2 °F 1015.8 in Calm     82 % 0.0 in 0.0 W/m2 CLR
03:50 18.3 °F 15.2 °F 1015.8 in Calm     82 % 0.0 in 0.0 W/m2 CLR
03:55 18.2 °F 15.3 °F 1015.5 in Calm     83 % 0.0 in 0.0 W/m2 CLR
04:00 18.2 °F 15.2 °F 1015.5 in Calm     83 % 0.0 in 0.0 W/m2 CLR
04:05 18.1 °F 15.2 °F 1015.8 in Calm     83 % 0.0 in 0.0 W/m2 CLR
04:10 18.1 °F 15.1 °F 1015.8 in Calm     83 % 0.0 in 0.0 W/m2 CLR
04:15 18.0 °F 15.1 °F 1015.5 in Calm     83 % 0.0 in 0.0 W/m2 CLR
04:20 17.9 °F 14.9 °F 1015.8 in Calm     83 % 0.0 in 0.0 W/m2 CLR
04:25 17.8 °F 14.8 °F 1015.8 in Calm     83 % 0.0 in 0.0 W/m2 CLR
04:30 17.7 °F 14.8 °F 1015.5 in Calm     83 % 0.0 in 0.0 W/m2 CLR
04:35 17.7 °F 14.8 °F 1015.8 in Calm     83 % 0.0 in 0.0 W/m2 CLR
04:40 17.7 °F 15.0 °F 1015.8 in Calm     84 % 0.0 in 0.0 W/m2 CLR
04:45 17.7 °F 14.9 °F 1015.8 in Calm     84 % 0.0 in 0.0 W/m2 CLR
04:50 17.6 °F 14.8 °F 1015.8 in Calm     84 % 0.0 in 0.0 W/m2 CLR
04:55 17.5 °F 14.8 °F 1015.8 in Calm     84 % 0.0 in 0.0 W/m2 CLR
05:00 17.4 °F 14.7 °F 1015.8 in Calm     84 % 0.0 in 0.0 W/m2 CLR
05:05 17.3 °F 14.6 °F 1015.8 in Calm     84 % 0.0 in 0.0 W/m2 CLR
05:10 17.3 °F 14.6 °F 1015.8 in Calm     84 % 0.0 in 0.0 W/m2 CLR
05:16 17.4 °F 14.7 °F 1015.8 in Calm     84 % 0.0 in 0.0 W/m2 CLR
05:21 17.4 °F 14.7 °F 1015.8 in Calm     84 % 0.0 in 0.0 W/m2 CLR
05:26 17.4 °F 14.7 °F 1015.8 in Calm     84 % 0.0 in 0.0 W/m2 CLR
05:31 17.3 °F 14.6 °F 1015.8 in Calm     84 % 0.0 in 0.0 W/m2 CLR
05:36 17.3 °F 14.7 °F 1015.8 in Calm     85 % 0.0 in 0.0 W/m2 CLR
05:41 17.2 °F 14.6 °F 1015.8 in Calm     85 % 0.0 in 0.0 W/m2 CLR
05:46 17.1 °F 14.7 °F 1015.8 in Calm     86 % 0.0 in 0.0 W/m2 CLR
05:51 17.1 °F 14.7 °F 1015.8 in Calm     86 % 0.0 in 0.0 W/m2 CLR
05:56 17.0 °F 14.7 °F 1015.8 in Calm     86 % 0.0 in 0.0 W/m2 CLR
06:01 16.9 °F 14.6 °F 1015.8 in Calm     86 % 0.0 in 0.0 W/m2 CLR
06:06 16.9 °F 14.6 °F 1016.1 in Calm     86 % 0.0 in 0.0 W/m2 CLR
06:11 16.8 °F 14.4 °F 1016.1 in Calm     86 % 0.0 in 0.0 W/m2 CLR
06:16 16.8 °F 14.4 °F 1016.1 in Calm     86 % 0.0 in 0.0 W/m2 CLR
06:21 16.7 °F 14.3 °F 1016.1 in Calm     86 % 0.0 in 0.0 W/m2 OVC
06:26 16.6 °F 14.2 °F 1016.1 in Calm     86 % 0.0 in 0.0 W/m2 OVC
06:31 16.6 °F 14.2 °F 1016.1 in Calm     86 % 0.0 in 5.0 W/m2 OVC
06:36 16.6 °F 14.2 °F 1016.1 in Calm     86 % 0.0 in 9.0 W/m2 BKN
06:41 16.5 °F 14.2 °F 1016.1 in Calm     86 % 0.0 in 11.0 W/m2 BKN
06:46 16.5 °F 14.2 °F 1016.1 in Calm     86 % 0.0 in 14.0 W/m2 BKN
06:51 16.4 °F 14.1 °F 1016.1 in Calm     86 % 0.0 in 16.0 W/m2 BKN
06:56 16.3 °F 13.9 °F 1016.1 in Calm     86 % 0.0 in 19.0 W/m2 BKN
07:01 16.3 °F 14.2 °F 1016.1 in Calm     87 % 0.0 in 23.0 W/m2 BKN
07:06 16.4 °F 14.3 °F 1016.1 in Calm     87 % 0.0 in 30.0 W/m2 BKN
07:11 16.6 °F 14.4 °F 1016.1 in Calm     87 % 0.0 in 39.0 W/m2 BKN
07:16 16.7 °F 14.6 °F 1016.1 in Calm     87 % 0.0 in 49.0 W/m2 SCT
07:21 16.9 °F 14.6 °F 1016.1 in Calm     86 % 0.0 in 60.0 W/m2 SCT
07:26 17.0 °F 14.7 °F 1016.5 in Calm     86 % 0.0 in 70.0 W/m2 FEW
07:31 17.2 °F 14.6 °F 1016.5 in Calm     85 % 0.0 in 83.0 W/m2 FEW
07:36 17.3 °F 14.8 °F 1016.5 in Calm     85 % 0.0 in 95.0 W/m2 FEW
07:41 17.6 °F 14.8 °F 1016.5 in Calm     84 % 0.0 in 113.0 W/m2 CLR
07:46 17.9 °F 15.2 °F 1016.5 in Calm     84 % 0.0 in 127.0 W/m2 CLR
07:51 18.2 °F 15.1 °F 1016.5 in Calm     82 % 0.0 in 142.0 W/m2 CLR
07:56 18.4 °F 15.1 °F 1016.5 in Calm     81 % 0.0 in 160.0 W/m2 CLR
08:01 18.7 °F 15.4 °F 1016.5 in Calm     81 % 0.0 in 176.0 W/m2 CLR
08:06 18.9 °F 15.4 °F 1016.5 in Calm     80 % 0.0 in 192.0 W/m2 CLR
08:11 19.3 °F 15.4 °F 1016.5 in Calm     78 % 0.0 in 206.0 W/m2 CLR
08:16 19.7 °F 15.6 °F 1016.5 in Calm     77 % 0.0 in 221.0 W/m2 CLR
08:21 20.1 °F 15.7 °F 1016.5 in Calm     76 % 0.0 in 239.0 W/m2 CLR
08:26 20.5 °F 15.7 °F 1016.5 in Calm     74 % 0.0 in 253.0 W/m2 CLR
08:31 20.9 °F 16.1 °F 1016.8 in Calm     74 % 0.0 in 267.0 W/m2 CLR
08:36 21.3 °F 16.1 °F 1016.8 in Calm     72 % 0.0 in 281.0 W/m2 CLR
08:41 21.7 °F 16.2 °F 1016.8 in Calm     71 % 0.0 in 299.0 W/m2 CLR
08:46 22.0 °F 16.3 °F 1016.8 in Calm     70 % 0.0 in 315.0 W/m2 CLR
08:51 22.3 °F 16.4 °F 1016.8 in Calm     69 % 0.0 in 329.0 W/m2 CLR
08:56 22.7 °F 16.2 °F 1016.8 in Calm     67 % 0.0 in 343.0 W/m2 CLR
09:01 23.0 °F 16.3 °F 1016.8 in Calm     66 % 0.0 in 359.0 W/m2 CLR
09:06 23.3 °F 16.6 °F 1016.5 in Calm     66 % 0.0 in 374.0 W/m2 CLR
09:11 23.9 °F 16.9 °F 1016.5 in Calm     65 % 0.0 in 390.0 W/m2 CLR
09:16 24.3 °F 16.8 °F 1016.5 in Calm     63 % 0.0 in 404.0 W/m2 CLR
09:21 24.4 °F 16.9 °F 1016.5 in Calm     63 % 0.0 in 420.0 W/m2 CLR
09:26 24.4 °F 16.9 °F 1016.5 in Calm     63 % 0.0 in 438.0 W/m2 CLR
09:31 24.4 °F 16.9 °F 1016.5 in Calm     63 % 0.0 in 452.0 W/m2 CLR
09:36 24.7 °F 17.2 °F 1016.5 in Calm     63 % 0.0 in 466.0 W/m2 CLR
09:41 25.1 °F 17.0 °F 1016.5 in Calm     61 % 0.0 in 480.0 W/m2 CLR
09:46 25.4 °F 17.3 °F 1016.5 in Calm     61 % 0.0 in 497.0 W/m2 CLR
09:51 25.8 °F 17.2 °F 1016.5 in Calm     59 % 0.0 in 512.0 W/m2 CLR
09:56 26.1 °F 17.4 °F 1016.5 in Calm     59 % 0.0 in 526.0 W/m2 CLR
10:01 26.3 °F 17.1 °F 1016.5 in Calm     57 % 0.0 in 540.0 W/m2 CLR
10:06 26.2 °F 17.6 °F 1016.5 in Calm     59 % 0.0 in 554.0 W/m2 CLR
10:11 26.4 °F 17.8 °F 1016.8 in Calm   0.2 mph 59 % 0.0 in 570.0 W/m2 CLR
10:16 26.6 °F 17.7 °F 1016.8 in ENE 1.9 mph 1.9 mph 58 % 0.0 in 584.0 W/m2 CLR
10:21 26.7 °F 17.8 °F 1016.5 in East 1.9 mph 1.9 mph 58 % 0.0 in 596.0 W/m2 CLR
10:26 26.9 °F 17.7 °F 1016.5 in ENE 5.6 mph 5.6 mph 57 % 0.0 in 610.0 W/m2 CLR
10:31 26.9 °F 17.4 °F 1016.8 in ENE 6.4 mph 6.4 mph 56 % 0.0 in 624.0 W/m2 CLR
10:36 26.7 °F 17.5 °F 1016.8 in ENE 7.4 mph 7.4 mph 57 % 0.0 in 636.0 W/m2 CLR
10:41 27.0 °F 17.5 °F 1016.5 in ENE 8.0 mph 8.0 mph 56 % 0.0 in 650.0 W/m2 CLR
10:46 27.2 °F 17.9 °F 1016.5 in ENE 8.0 mph 8.0 mph 57 % 0.0 in 663.0 W/m2 CLR
10:51 27.3 °F 17.2 °F 1016.5 in ENE 7.4 mph 7.4 mph 54 % 0.0 in 677.0 W/m2 CLR
10:56 27.4 °F 17.3 °F 1016.5 in ENE 7.4 mph 7.4 mph 54 % 0.0 in 687.0 W/m2 CLR
11:01 27.6 °F 17.1 °F 1016.5 in NE 13.0 mph 13.0 mph 53 % 0.0 in 701.0 W/m2 CLR
11:06 27.9 °F 16.5 °F 1016.5 in NE 9.7 mph 9.7 mph 50 % 0.0 in 712.0 W/m2 CLR
11:11 28.0 °F 16.6 °F 1016.5 in ENE 3.7 mph   50 % 0.0 in 722.0 W/m2 CLR
11:16 28.1 °F 15.7 °F 1016.5 in ENE 11.1 mph 11.1 mph 47 % 0.0 in 737.0 W/m2 CLR
11:22 28.3 °F 16.3 °F 1016.5 in NE 5.6 mph 5.6 mph 48 % 0.0 in 745.0 W/m2 CLR
11:27 28.6 °F 16.8 °F 1016.5 in NNE 8.0 mph 8.0 mph 49 % 0.0 in 756.0 W/m2 CLR
11:37 28.9 °F 16.5 °F 1016.5 in Calm     47 % 0.0 in 779.0 W/m2 CLR
11:42 29.3 °F 16.8 °F 1016.5 in NE 5.6 mph   47 % 0.0 in 788.0 W/m2 CLR
11:47 29.5 °F 16.3 °F 1016.5 in NE 7.4 mph 7.4 mph 45 % 0.0 in 798.0 W/m2 CLR
11:52 29.7 °F 15.8 °F 1016.1 in Calm     43 % 0.0 in 807.0 W/m2 CLR
11:57 30.0 °F 16.1 °F 1016.1 in ENE 3.7 mph   43 % 0.0 in 816.0 W/m2 CLR
12:02 30.1 °F 15.7 °F 1016.1 in NE 5.6 mph   42 % 0.0 in 826.0 W/m2 CLR
12:07 30.0 °F 16.1 °F 1016.1 in NE 5.6 mph 5.6 mph 43 % 0.0 in 833.0 W/m2 CLR
12:12 30.0 °F 16.1 °F 1016.1 in NE 9.3 mph 9.3 mph 43 % 0.0 in 840.0 W/m2 CLR
12:17 30.1 °F 15.4 °F 1016.1 in Calm     41 % 0.0 in 849.0 W/m2 CLR
12:22 30.3 °F 16.7 °F 1016.1 in ENE 9.3 mph 9.3 mph 44 % 0.0 in 856.0 W/m2 CLR
12:27 30.6 °F 15.8 °F 1016.1 in NE 5.6 mph 5.6 mph 41 % 0.0 in 863.0 W/m2 CLR
12:32 30.8 °F 16.1 °F 1016.1 in Calm     41 % 0.0 in 865.0 W/m2 CLR
12:37 30.9 °F 16.2 °F 1015.8 in NE 9.3 mph 9.3 mph 41 % 0.0 in 874.0 W/m2 CLR
12:42 31.1 °F 15.9 °F 1015.8 in NE 7.4 mph 7.4 mph 40 % 0.0 in 881.0 W/m2 CLR
12:47 31.2 °F 16.3 °F 1015.8 in Calm     41 % 0.0 in 888.0 W/m2 CLR
12:52 31.6 °F 16.8 °F 1015.8 in NE 13.0 mph 13.0 mph 41 % 0.0 in 891.0 W/m2 CLR
12:57 31.7 °F 16.8 °F 1015.8 in ENE 8.0 mph 8.0 mph 41 % 0.0 in 896.0 W/m2 CLR
13:02 31.8 °F 16.6 °F 1015.8 in NNE 5.6 mph   40 % 0.0 in 900.0 W/m2 CLR
13:07 31.9 °F 16.6 °F 1015.8 in ENE 13.0 mph 13.0 mph 40 % 0.0 in 905.0 W/m2 CLR
13:12 32.2 °F 16.4 °F 1015.5 in ENE 7.4 mph 7.4 mph 39 % 0.0 in 911.0 W/m2 CLR
13:17 32.3 °F 16.2 °F 1015.5 in North 7.4 mph 7.4 mph 38 % 0.0 in 912.0 W/m2 CLR
13:22 32.2 °F 15.6 °F 1015.5 in NNE 18.5 mph 18.5 mph 37 % 0.0 in 914.0 W/m2 CLR
13:27 32.2 °F 16.1 °F 1015.5 in NNE 13.0 mph 13.0 mph 38 % 0.0 in 916.0 W/m2 CLR
13:32 32.3 °F 16.2 °F 1015.5 in NE 11.1 mph 11.1 mph 38 % 0.0 in 919.0 W/m2 CLR
13:37 32.6 °F 16.0 °F 1015.5 in ENE 9.3 mph 9.3 mph 37 % 0.0 in 923.0 W/m2 CLR
13:42 32.6 °F 15.6 °F 1015.1 in NE 9.3 mph 9.3 mph 36 % 0.0 in 925.0 W/m2 CLR
13:47 32.8 °F 15.8 °F 1015.1 in NE 11.1 mph 11.1 mph 36 % 0.0 in 925.0 W/m2 CLR
13:52 33.1 °F 16.1 °F 1015.1 in ENE 7.4 mph 7.4 mph 36 % 0.0 in 925.0 W/m2 CLR
13:57 33.4 °F 15.4 °F 1015.1 in NNE 16.7 mph 16.7 mph 34 % 0.0 in 928.0 W/m2 CLR
14:02 33.4 °F 15.4 °F 1015.1 in NE 14.8 mph 14.8 mph 34 % 0.0 in 928.0 W/m2 CLR
14:07 33.4 °F 14.5 °F 1015.1 in ENE 3.7 mph 3.7 mph 32 % 0.0 in 928.0 W/m2 CLR
14:12 33.7 °F 13.7 °F 1015.1 in NNE 11.1 mph 11.1 mph 30 % 0.0 in 928.0 W/m2 CLR
14:17 33.8 °F 13.3 °F 1015.1 in NNE 14.8 mph 14.8 mph 29 % 0.0 in 928.0 W/m2 CLR
14:22 33.9 °F 12.9 °F 1015.1 in East 14.8 mph 14.8 mph 28 % 0.0 in 926.0 W/m2 CLR
14:27 34.0 °F 13.4 °F 1014.8 in ENE 8.0 mph 8.0 mph 29 % 0.0 in 926.0 W/m2 CLR
14:32 34.2 °F 12.5 °F 1014.8 in NNE 1.9 mph   27 % 0.0 in 925.0 W/m2 CLR
14:37 34.2 °F 13.1 °F 1014.8 in NE 11.1 mph 11.1 mph 28 % 0.0 in 921.0 W/m2 CLR
14:42 34.3 °F 13.7 °F 1014.8 in ENE 9.3 mph 9.3 mph 29 % 0.0 in 918.0 W/m2 CLR
14:47 34.5 °F 13.3 °F 1014.8 in NE 14.8 mph 14.8 mph 28 % 0.0 in 914.0 W/m2 CLR
14:52 34.7 °F 13.0 °F 1014.4 in NE 9.7 mph 9.7 mph 27 % 0.0 in 909.0 W/m2 CLR
14:57 34.8 °F 13.1 °F 1014.4 in NNE 11.1 mph 11.1 mph 27 % 0.0 in 909.0 W/m2 CLR
15:02 34.8 °F 13.0 °F 1014.4 in NE 7.4 mph 7.4 mph 27 % 0.0 in 904.0 W/m2 CLR
15:07 34.8 °F 13.1 °F 1014.4 in NE 7.4 mph 7.4 mph 27 % 0.0 in 898.0 W/m2 CLR
15:12 34.9 °F 13.7 °F 1014.4 in NNE 9.7 mph 9.7 mph 28 % 0.0 in 891.0 W/m2 CLR
15:17 35.1 °F 13.3 °F 1014.4 in NE 18.5 mph 18.5 mph 27 % 0.0 in 888.0 W/m2 CLR
15:22 35.2 °F 14.4 °F 1014.4 in East 7.4 mph 7.4 mph 29 % 0.0 in 882.0 W/m2 CLR
15:27 34.8 °F 13.6 °F 1014.4 in ESE 13.0 mph 13.0 mph 28 % 0.0 in 875.0 W/m2 CLR
15:32 34.6 °F 13.9 °F 1014.1 in NE 13.0 mph 13.0 mph 29 % 0.0 in 870.0 W/m2 CLR
15:37 34.7 °F 13.5 °F 1014.1 in North 16.7 mph 16.7 mph 28 % 0.0 in 860.0 W/m2 CLR
15:42 35.0 °F 13.8 °F 1014.1 in NE 9.3 mph 9.3 mph 28 % 0.0 in 860.0 W/m2 CLR
15:47 35.3 °F 14.0 °F 1014.1 in SE 5.6 mph 5.6 mph 28 % 0.0 in 849.0 W/m2 CLR
15:52 35.1 °F 13.9 °F 1014.1 in ESE 13.0 mph 13.0 mph 28 % 0.0 in 840.0 W/m2 CLR
15:57 34.9 °F 13.7 °F 1014.1 in East 8.0 mph 8.0 mph 28 % 0.0 in 830.0 W/m2 CLR
16:02 34.9 °F 13.2 °F 1013.8 in NNE 18.5 mph 18.5 mph 27 % 0.0 in 826.0 W/m2 CLR
16:07 35.2 °F 13.4 °F 1013.8 in ENE 11.1 mph 11.1 mph 27 % 0.0 in 812.0 W/m2 CLR
16:12 35.4 °F 14.1 °F 1013.8 in East 9.7 mph 9.7 mph 28 % 0.0 in 803.0 W/m2 CLR
16:17 35.4 °F 13.6 °F 1013.8 in SE 9.7 mph 9.7 mph 27 % 0.0 in 795.0 W/m2 CLR
16:22 35.2 °F 14.5 °F 1013.8 in ENE 3.7 mph 3.7 mph 29 % 0.0 in 788.0 W/m2 CLR
16:27 35.4 °F 13.6 °F 1013.8 in East 7.4 mph 7.4 mph 27 % 0.0 in 775.0 W/m2 CLR
16:32 35.2 °F 13.4 °F 1013.8 in NE 13.0 mph 13.0 mph 27 % 0.0 in 765.0 W/m2 CLR
16:37 35.2 °F 12.8 °F 1013.8 in ENE 12.9 mph 12.9 mph 26 % 0.0 in 756.0 W/m2 CLR
16:42 35.2 °F 13.3 °F 1013.4 in NE 3.7 mph 3.7 mph 27 % 0.0 in 745.0 W/m2 CLR
16:47 35.4 °F 14.1 °F 1013.4 in ENE 18.5 mph 18.5 mph 28 % 0.0 in 733.0 W/m2 CLR
16:52 35.1 °F 12.7 °F 1013.4 in ENE 13.0 mph 13.0 mph 26 % 0.0 in 719.0 W/m2 CLR
16:57 35.1 °F 14.3 °F 1013.4 in ENE 5.6 mph   29 % 0.0 in 708.0 W/m2 CLR
17:02 34.9 °F 14.8 °F 1013.4 in ESE 9.7 mph 9.7 mph 30 % 0.0 in 698.0 W/m2 CLR
17:07 35.1 °F 14.4 °F 1013.4 in East 5.6 mph 5.6 mph 29 % 0.0 in 682.0 W/m2 CLR
17:12 35.2 °F 13.9 °F 1013.4 in ENE 13.0 mph 13.0 mph 28 % 0.0 in 671.0 W/m2 CLR
17:17 34.9 °F 14.3 °F 1013.1 in ENE 18.5 mph 18.5 mph 29 % 0.0 in 661.0 W/m2 CLR
17:22 34.7 °F 14.1 °F 1013.1 in East 6.4 mph 6.4 mph 29 % 0.0 in 647.0 W/m2 CLR
17:27 34.8 °F 13.6 °F 1013.1 in SE 9.7 mph 9.7 mph 28 % 0.0 in 631.0 W/m2 CLR
17:32 34.8 °F 13.6 °F 1013.1 in ESE 13.0 mph 13.0 mph 28 % 0.0 in 621.0 W/m2 CLR
17:37 34.7 °F 13.6 °F 1013.1 in ESE 11.3 mph 11.3 mph 28 % 0.0 in 608.0 W/m2 CLR
17:42 34.6 °F 13.4 °F 1013.1 in ESE 7.4 mph 7.4 mph 28 % 0.0 in 592.0 W/m2 CLR
17:47 34.6 °F 13.4 °F 1013.1 in East 13.0 mph 13.0 mph 28 % 0.0 in 578.0 W/m2 CLR
17:49 34.5 °F 13.9 °F 1013.1 in SE 11.1 mph 11.1 mph 29 % 0.0 in 575.0 W/m2 CLR
17:54 34.5 °F 13.3 °F 1013.1 in ESE 11.1 mph 11.1 mph 28 % 0.0 in 561.0 W/m2 CLR
17:59 34.5 °F 13.3 °F 1013.1 in East 9.3 mph 9.3 mph 28 % 0.0 in 547.0 W/m2 CLR
18:04 34.3 °F 13.2 °F 1013.1 in ESE 13.0 mph 13.0 mph 28 % 0.0 in 534.0 W/m2 CLR
18:09 34.3 °F 13.2 °F 1013.1 in ESE 11.1 mph 11.1 mph 28 % 0.0 in 520.0 W/m2 CLR
18:14 34.4 °F 13.2 °F 1013.1 in ESE 11.1 mph 11.1 mph 28 % 0.0 in 504.0 W/m2 CLR
18:19 34.3 °F 13.2 °F 1012.8 in East 13.0 mph 13.0 mph 28 % 0.0 in 490.0 W/m2 CLR
18:24 34.2 °F 13.7 °F 1012.8 in ESE 7.4 mph 7.4 mph 29 % 0.0 in 475.0 W/m2 CLR
18:29 34.1 °F 14.1 °F 1012.8 in ESE 13.0 mph 13.0 mph 30 % 0.0 in 461.0 W/m2 CLR
18:34 34.0 °F 13.4 °F 1012.8 in East 11.1 mph 11.1 mph 29 % 0.0 in 446.0 W/m2 CLR
18:39 33.9 °F 13.3 °F 1012.8 in ENE 9.3 mph 9.3 mph 29 % 0.0 in 429.0 W/m2 CLR
18:44 33.8 °F 13.8 °F 1012.8 in SE 11.1 mph 11.1 mph 30 % 0.0 in 413.0 W/m2 CLR
18:49 33.6 °F 14.2 °F 1012.8 in ESE 16.7 mph 16.7 mph 31 % 0.0 in 399.0 W/m2 CLR
18:54 33.4 °F 14.0 °F 1012.8 in ESE 13.0 mph 13.0 mph 31 % 0.0 in 385.0 W/m2 CLR
18:59 33.4 °F 13.4 °F 1012.8 in East 11.3 mph 11.3 mph 30 % 0.0 in 367.0 W/m2 CLR
19:04 33.3 °F 13.8 °F 1012.8 in SE 9.3 mph 9.3 mph 31 % 0.0 in 352.0 W/m2 CLR
19:09 33.3 °F 13.8 °F 1012.8 in East 9.3 mph 9.3 mph 31 % 0.0 in 338.0 W/m2 CLR
19:14 33.3 °F 14.3 °F 1012.8 in ESE 7.4 mph 7.4 mph 32 % 0.0 in 322.0 W/m2 CLR
19:19 33.2 °F 14.3 °F 1012.8 in SE 5.6 mph 5.6 mph 32 % 0.0 in 304.0 W/m2 CLR
19:24 33.2 °F 14.3 °F 1012.8 in SSE 7.4 mph 7.4 mph 32 % 0.0 in 288.0 W/m2 CLR
19:29 32.9 °F 14.0 °F 1012.8 in SE 14.8 mph 14.8 mph 32 % 0.0 in 274.0 W/m2 CLR
19:34 32.8 °F 14.4 °F 1012.8 in ESE 13.0 mph 13.0 mph 33 % 0.0 in 260.0 W/m2 CLR
19:39 32.7 °F 14.8 °F 1012.8 in ESE 13.0 mph 13.0 mph 34 % 0.0 in 246.0 W/m2 CLR
19:44 32.6 °F 14.7 °F 1013.1 in ESE 11.1 mph 11.1 mph 34 % 0.0 in 227.0 W/m2 CLR
19:49 32.5 °F 14.6 °F 1012.8 in ESE 11.1 mph 11.1 mph 34 % 0.0 in 213.0 W/m2 CLR
19:54 32.4 °F 14.6 °F 1013.1 in ESE 9.3 mph 9.3 mph 34 % 0.0 in 197.0 W/m2 CLR
19:59 32.3 °F 14.4 °F 1013.1 in SE 9.3 mph 9.3 mph 34 % 0.0 in 181.0 W/m2 CLR
20:05 32.3 °F 14.4 °F 1013.1 in ESE 9.3 mph 9.3 mph 34 % 0.0 in 162.0 W/m2 CLR
20:10 32.2 °F 14.4 °F 1013.1 in ESE 8.0 mph 8.0 mph 34 % 0.0 in 144.0 W/m2 CLR
20:15 32.1 °F 14.7 °F 1013.1 in ESE 9.3 mph 9.3 mph 35 % 0.0 in 128.0 W/m2 CLR
20:20 31.9 °F 14.1 °F 1013.1 in ESE 7.4 mph 7.4 mph 34 % 0.0 in 114.0 W/m2 CLR
20:25 31.8 °F 14.5 °F 1013.1 in ESE 7.4 mph 7.4 mph 35 % 0.0 in 97.0 W/m2 CLR
20:30 31.7 °F 14.4 °F 1013.1 in Calm     35 % 0.0 in 84.0 W/m2 CLR
20:35 31.5 °F 14.2 °F 1013.1 in ESE 7.4 mph 7.4 mph 35 % 0.0 in 72.0 W/m2 FEW
20:40 31.4 °F 14.5 °F 1013.1 in Calm     36 % 0.0 in 60.0 W/m2 SCT
20:45 31.3 °F 14.4 °F 1013.1 in SE 1.6 mph 2.1 mph 36 % 0.0 in 26.0 W/m2 BKN
20:50 31.1 °F 14.3 °F 1013.1 in Calm     36 % 0.0 in 39.0 W/m2 BKN
20:55 31.0 °F 14.2 °F 1013.1 in SSE 13.0 mph 13.0 mph 36 % 0.0 in 30.0 W/m2 BKN
21:00 30.9 °F 14.1 °F 1013.1 in SSE 11.3 mph 11.3 mph 36 % 0.0 in 23.0 W/m2 BKN
21:05 30.8 °F 14.1 °F 1013.1 in SE 11.3 mph 11.3 mph 36 % 0.0 in 18.0 W/m2 BKN
21:10 30.7 °F 13.9 °F 1013.4 in SE 11.1 mph 11.1 mph 36 % 0.0 in 14.0 W/m2 BKN
21:15 30.5 °F 14.2 °F 1013.4 in SE 9.3 mph 9.3 mph 37 % 0.0 in 12.0 W/m2 BKN
21:20 30.3 °F 14.0 °F 1013.4 in SE 7.4 mph 7.4 mph 37 % 0.0 in 9.0 W/m2 BKN
21:25 30.2 °F 13.9 °F 1013.4 in SSE 11.3 mph 11.3 mph 37 % 0.0 in 7.0 W/m2 BKN
21:30 30.1 °F 13.8 °F 1013.4 in SE 11.3 mph 11.3 mph 37 % 0.0 in 0.0 W/m2 OVC
21:35 29.9 °F 13.2 °F 1013.4 in SE 11.1 mph 11.1 mph 36 % 0.0 in 0.0 W/m2 OVC
21:40 29.8 °F 13.6 °F 1013.4 in SE 11.1 mph 11.1 mph 37 % 0.0 in 0.0 W/m2 OVC
21:45 29.7 °F 13.5 °F 1013.4 in SE 9.3 mph 9.3 mph 37 % 0.0 in 0.0 W/m2 CLR
21:50 29.6 °F 13.7 °F 1013.4 in SE 5.6 mph 5.6 mph 38 % 0.0 in 0.0 W/m2 CLR
21:55 29.4 °F 13.2 °F 1013.8 in Calm   1.1 mph 37 % 0.0 in 0.0 W/m2 CLR
22:00 29.3 °F 13.5 °F 1013.8 in Calm     38 % 0.0 in 0.0 W/m2 CLR
22:05 29.1 °F 12.9 °F 1013.8 in Calm     37 % 0.0 in 0.0 W/m2 CLR
22:10 28.9 °F 12.8 °F 1013.8 in Calm     37 % 0.0 in 0.0 W/m2 CLR
22:15 28.8 °F 12.7 °F 1013.8 in Calm     37 % 0.0 in 0.0 W/m2 CLR
22:20 28.7 °F 12.6 °F 1014.1 in Calm     37 % 0.0 in 0.0 W/m2 CLR
22:25 28.6 °F 12.5 °F 1014.1 in Calm     37 % 0.0 in 0.0 W/m2 CLR
22:30 28.4 °F 12.7 °F 1014.1 in Calm     38 % 0.0 in 0.0 W/m2 CLR
22:31 28.4 °F 12.7 °F 1014.1 in Calm     38 % 0.0 in 0.0 W/m2 CLR
22:36 28.1 °F 12.4 °F 1014.1 in Calm     38 % 0.0 in 0.0 W/m2 CLR
22:41 27.9 °F 12.7 °F 1014.1 in Calm     39 % 0.0 in 0.0 W/m2 CLR
22:46 27.8 °F 12.9 °F 1014.1 in Calm     40 % 0.0 in 0.0 W/m2 CLR
22:51 27.6 °F 12.4 °F 1014.4 in Calm     39 % 0.0 in 0.0 W/m2 CLR
22:57 27.5 °F 12.7 °F 1014.4 in Calm     40 % 0.0 in 0.0 W/m2 CLR
23:02 27.4 °F 12.6 °F 1014.4 in Calm     40 % 0.0 in 0.0 W/m2 CLR
23:07 27.3 °F 12.5 °F 1014.4 in Calm     40 % 0.0 in 0.0 W/m2 CLR
23:12 27.2 °F 12.8 °F 1014.4 in Calm     41 % 0.0 in 0.0 W/m2 CLR
23:17 27.1 °F 12.7 °F 1014.4 in Calm     41 % 0.0 in 0.0 W/m2 CLR
23:22 26.9 °F 12.9 °F 1014.4 in Calm     42 % 0.0 in 0.0 W/m2 CLR
23:27 26.7 °F 13.1 °F 1014.8 in Calm     43 % 0.0 in 0.0 W/m2 CLR
23:32 26.4 °F 12.8 °F 1014.8 in Calm     43 % 0.0 in 0.0 W/m2 CLR
23:37 25.9 °F 13.7 °F 1014.8 in Calm     47 % 0.0 in 0.0 W/m2 CLR
23:42 25.3 °F 13.5 °F 1014.8 in Calm     48 % 0.0 in 0.0 W/m2 CLR
23:47 24.9 °F 13.2 °F 1014.8 in Calm     48 % 0.0 in 0.0 W/m2 CLR
23:52 25.0 °F 12.9 °F 1014.8 in Calm     47 % 0.0 in 0.0 W/m2 CLR
23:57 25.2 °F 13.1 °F 1014.8 in ENE 3.7 mph   47 % 0.0 in 0.0 W/m2 CLR
23:58 25.2 °F 12.8 °F 1014.8 in Calm     46 % 0.0 in 0.0 W/m2 CLR
Lo Temps de Massalio
Compliments of Weather Underground - 1.25 mb